Location: Unspecified
(0.0000°N, 0.0000°E)
Time: 16:58:15
(UTC+00:00)

Vanguard 3 - Pass Details

Date: 07 February 2023
Orbit: 509 x 3249 km, 33.3° (Epoch: 20 March)

Event Time Altitude Azimuth Distance (km) Brightness Sun altitude
Rises 20:52:23 0° 331° (NNW) 5,174 11.4 -37.9°
Reaches altitude 10° 20:57:39 10° 351° (N) 4,717 10.9 -39.2°
Enters shadow 20:59:40 13° 360° (N) 4,658 10.8 -39.6°
Maximum altitude 21:05:37 17° 26° (NNE) 4,841 - -41.0°
Drops below altitude 10° 21:15:21 10° 59° (ENE) 5,939 - -43.3°
Sets 21:23:33 0° 77° (ENE) 7,188 - -45.2°
